| time (UTC) | temp F | wind direction | speed knots | gust knots | rain 1hr in | rain 24hr in | rain mn in | humidity % | barometer mb |
| 20260507021031 | 47 | 294 | 2.6 | 8.7 | 0.05 | 0.57 | 0.57 | 95 | 1005.8 |
| 20260507020531 | 47 | 319 | 1.7 | 9.6 | 0.05 | 0.57 | 0.57 | 95 | 1006.0 |
| 20260507020053 | 47 | 308 | 4.3 | 9.6 | 0.04 | 0.56 | 0.56 | 94 | 1006.0 |
| 20260507015530 | 47 | 292 | 3.5 | 8.7 | 0.04 | 0.56 | 0.56 | 94 | 1006.0 |
| 20260507015030 | 47 | 260 | 3.5 | 8.7 | 0.04 | 0.56 | 0.56 | 94 | 1005.9 |
| 20260507014549 | 47 | 288 | 3.5 | 8.7 | 0.04 | 0.56 | 0.56 | 94 | 1005.8 |
| 20260507014030 | 47 | 242 | 3.5 | 10.4 | 0.04 | 0.56 | 0.56 | 94 | 1005.7 |
| 20260507013530 | 47 | 267 | 3.5 | 11.3 | 0.04 | 0.55 | 0.55 | 94 | 1005.7 |
| 20260507013039 | 47 | 252 | 4.3 | 13.0 | 0.03 | 0.54 | 0.54 | 94 | 1005.6 |
| 20260507012534 | 48 | 274 | 5.2 | 13.0 | 0.03 | 0.54 | 0.54 | 93 | 1005.7 |
| 20260507012031 | 48 | 259 | 4.3 | 13.0 | 0.02 | 0.52 | 0.52 | 94 | 1005.5 |
| 20260507011547 | 49 | 344 | 3.5 | 11.3 | 0.02 | 0.52 | 0.52 | 94 | 1005.4 |
| 20260507011031 | 49 | 298 | 2.6 | 8.7 | 0.01 | 0.52 | 0.52 | 94 | 1005.4 |
| 20260507010531 | 49 | 301 | 3.5 | 7.8 | 0.01 | 0.52 | 0.52 | 94 | 1005.2 |
| 20260507010045 | 49 | 336 | 2.6 | 8.7 | 0.01 | 0.52 | 0.52 | 93 | 1005.2 |
| 20260507005532 | 50 | 334 | 3.5 | 9.6 | 0.02 | 0.52 | 0.52 | 93 | 1005.3 |
| 20260507005034 | 50 | 266 | 3.5 | 9.6 | 0.03 | 0.52 | 0.52 | 93 | 1005.2 |
| 20260507004539 | 50 | 10 | 3.5 | 7.8 | 0.04 | 0.52 | 0.52 | 94 | 1005.2 |
| 20260507004030 | 51 | 317 | 2.6 | 7.8 | 0.06 | 0.52 | 0.52 | 94 | 1005.0 |
| 20260507003531 | 51 | 280 | 0.9 | 6.1 | 0.08 | 0.51 | 0.51 | 94 | 1005.1 |
| 20260507003039 | 51 | 259 | 1.7 | 7.0 | 0.12 | 0.51 | 0.51 | 94 | 1004.8 |
| 20260507002530 | 51 | 279 | 0.9 | 7.0 | 0.20 | 0.51 | 0.51 | 94 | 1004.7 |
| 20260507002030 | 52 | 253 | 3.5 | 7.0 | 0.21 | 0.51 | 0.51 | 94 | 1004.6 |
| 20260507001543 | 52 | 267 | 2.6 | 6.1 | 0.21 | 0.51 | 0.51 | 94 | 1004.4 |
| 20260507001029 | 52 | 292 | 1.7 | 8.7 | 0.21 | 0.51 | 0.51 | 94 | 1004.4 |
| 20260507000532 | 52 | 256 | 3.5 | 8.7 | 0.21 | 0.51 | 0.51 | 93 | 1004.4 |
| 20260507000044 | 53 | 288 | 1.7 | 11.3 | 0.21 | 0.51 | 0.51 | 93 | 1004.1 |
| 20260506235530 | 53 | 331 | 2.6 | 11.3 | 0.20 | 0.50 | 0.50 | 93 | 1003.9 |
| 20260506235030 | 54 | 0 | 3.5 | 11.3 | 0.20 | 0.49 | 0.49 | 92 | 1003.9 |
| 20260506234604 | 55 | 297 | 7.0 | 11.3 | 0.19 | 0.48 | 0.48 | 92 | 1003.7 |
| 20260506234034 | 56 | 307 | 3.5 | 10.4 | 0.17 | 0.46 | 0.46 | 95 | 1003.7 |
| 20260506233531 | 57 | 288 | 0.9 | 5.2 | 0.14 | 0.43 | 0.43 | 95 | 1003.6 |
| 20260506233047 | 57 | 273 | 1.7 | 3.5 | 0.08 | 0.37 | 0.37 | 95 | 1003.5 |
| 20260506232532 | 57 | 238 | 1.7 | 3.5 | 0.02 | 0.31 | 0.31 | 94 | 1003.4 |
| 20260506232030 | 57 | 208 | 0.9 | 3.5 | 0.01 | 0.30 | 0.30 | 94 | 1003.3 |
| 20260506231552 | 57 | 232 | 0.9 | 5.2 | 0.02 | 0.30 | 0.30 | 94 | 1003.2 |
| 20260506231029 | 57 | 231 | 1.7 | 7.0 | 0.02 | 0.30 | 0.30 | 94 | 1003.3 |
| 20260506230533 | 57 | 187 | 2.6 | 7.0 | 0.02 | 0.30 | 0.30 | 94 | 1003.3 |
| 20260506230038 | 57 | 279 | 2.6 | 7.0 | 0.02 | 0.30 | 0.30 | 94 | 1003.4 |
| 20260506225530 | 57 | 205 | 2.6 | 8.7 | 0.02 | 0.30 | 0.30 | 93 | 1003.5 |
| 20260506225032 | 58 | 247 | 3.5 | 8.7 | 0.01 | 0.29 | 0.29 | 93 | 1003.4 |
| 20260506224541 | 58 | 223 | 0.9 | 1.7 | 0.01 | 0.29 | 0.29 | 94 | 1003.3 |
| 20260506224031 | 58 | 223 | 0.0 | 1.7 | 0.01 | 0.29 | 0.29 | 94 | 1003.3 |
| 20260506223532 | 58 | 0 | 0.0 | 2.6 | 0.01 | 0.29 | 0.29 | 93 | 1003.3 |
| 20260506223042 | 58 | 223 | 0.0 | 3.5 | 0.01 | 0.29 | 0.29 | 93 | 1003.4 |
| 20260506222530 | 58 | 217 | 0.9 | 4.3 | 0.01 | 0.29 | 0.29 | 93 | 1003.3 |
| 20260506222030 | 58 | 188 | 0.9 | 5.2 | 0.01 | 0.29 | 0.29 | 92 | 1003.3 |
| 20260506221539 | 58 | 178 | 0.9 | 7.0 | 0.00 | 0.28 | 0.28 | 92 | 1003.3 |
| 20260506221030 | 58 | 222 | 2.6 | 7.0 | 0.00 | 0.28 | 0.28 | 92 | 1003.3 |
| 20260506220530 | 58 | 178 | 2.6 | 7.0 | 0.00 | 0.28 | 0.28 | 92 | 1003.2 |
| 20260506220039 | 58 | 190 | 2.6 | 7.0 | 0.00 | 0.28 | 0.28 | 92 | 1003.2 |
| 20260506215530 | 59 | 177 | 2.6 | 7.8 | 0.00 | 0.29 | 0.28 | 92 | 1003.2 |
| 20260506215030 | 59 | 189 | 3.5 | 8.7 | 0.00 | 0.29 | 0.28 | 92 | 1003.1 |
| 20260506214545 | 59 | 201 | 3.5 | 8.7 | 0.00 | 0.29 | 0.28 | 92 | 1003.1 |
| 20260506214034 | 59 | 167 | 3.5 | 7.8 | 0.00 | 0.29 | 0.28 | 91 | 1003.2 |
| 20260506213533 | 59 | 143 | 3.5 | 7.0 | 0.00 | 0.29 | 0.28 | 91 | 1003.2 |
| 20260506213043 | 59 | 178 | 3.5 | 11.3 | 0.00 | 0.29 | 0.28 | 91 | 1003.3 |
| 20260506212530 | 59 | 239 | 3.5 | 11.3 | 0.00 | 0.29 | 0.28 | 90 | 1003.2 |
| 20260506212031 | 59 | 194 | 5.2 | 11.3 | 0.00 | 0.29 | 0.28 | 90 | 1003.4 |
| 20260506211541 | 59 | 200 | 4.3 | 10.4 | 0.00 | 0.29 | 0.28 | 91 | 1003.4 |
| 20260506211030 | 59 | 175 | 4.3 | 11.3 | 0.00 | 0.29 | 0.28 | 91 | 1003.4 |
| 20260506210531 | 59 | 218 | 3.5 | 12.2 | 0.00 | 0.29 | 0.28 | 91 | 1003.4 |
| 20260506210040 | 59 | 207 | 4.3 | 12.2 | 0.00 | 0.29 | 0.28 | 91 | 1003.4 |
| 20260506205533 | 59 | 165 | 6.1 | 12.2 | 0.00 | 0.29 | 0.28 | 91 | 1003.4 |
| 20260506205030 | 58 | 215 | 6.1 | 12.2 | 0.00 | 0.29 | 0.28 | 92 | 1003.3 |
| 20260506204539 | 59 | 175 | 4.3 | 12.2 | 0.00 | 0.29 | 0.28 | 92 | 1003.4 |
| 20260506204031 | 58 | 181 | 7.0 | 11.3 | 0.00 | 0.29 | 0.28 | 92 | 1003.5 |
| 20260506203532 | 59 | 190 | 3.5 | 15.6 | 0.00 | 0.29 | 0.28 | 93 | 1003.6 |
| 20260506203039 | 58 | 183 | 6.1 | 15.6 | 0.00 | 0.29 | 0.28 | 92 | 1003.5 |
| 20260506202530 | 58 | 205 | 3.5 | 7.0 | 0.00 | 0.29 | 0.28 | 93 | 1003.5 |
| 20260506202030 | 58 | 142 | 2.6 | 8.7 | 0.00 | 0.29 | 0.28 | 94 | 1003.5 |
| 20260506201541 | 58 | 177 | 5.2 | 8.7 | 0.01 | 0.29 | 0.28 | 94 | 1003.6 |
| 20260506201029 | 58 | 170 | 2.6 | 10.4 | 0.03 | 0.29 | 0.28 | 94 | 1003.7 |
| 20260506200530 | 58 | 180 | 4.3 | 10.4 | 0.05 | 0.29 | 0.28 | 94 | 1003.7 |
| 20260506200040 | 58 | 148 | 4.3 | 8.7 | 0.06 | 0.29 | 0.28 | 94 | 1003.7 |
| 20260506195533 | 58 | 119 | 2.6 | 7.8 | 0.07 | 0.29 | 0.28 | 94 | 1003.7 |
| 20260506195032 | 58 | 171 | 2.6 | 7.8 | 0.07 | 0.29 | 0.28 | 94 | 1003.9 |
| 20260506194539 | 58 | 159 | 2.6 | 6.1 | 0.08 | 0.29 | 0.28 | 94 | 1004.0 |
| 20260506194030 | 58 | 138 | 2.6 | 6.1 | 0.09 | 0.29 | 0.28 | 94 | 1004.0 |
| 20260506193529 | 58 | 147 | 1.7 | 6.1 | 0.10 | 0.29 | 0.28 | 94 | 1004.2 |
| 20260506193037 | 58 | 204 | 1.7 | 4.3 | 0.10 | 0.29 | 0.28 | 94 | 1004.3 |
| 20260506192529 | 58 | 160 | 1.7 | 5.2 | 0.10 | 0.29 | 0.28 | 94 | 1004.2 |
| 20260506192034 | 58 | 154 | 0.9 | 5.2 | 0.10 | 0.28 | 0.27 | 94 | 1004.3 |
| 20260506191535 | 58 | 248 | 1.7 | 4.3 | 0.10 | 0.28 | 0.27 | 94 | 1004.5 |
| 20260506191030 | 58 | 206 | 0.0 | 4.3 | 0.09 | 0.26 | 0.25 | 94 | 1004.5 |
| 20260506190530 | 58 | 0 | 0.9 | 4.3 | 0.08 | 0.24 | 0.23 | 94 | 1004.4 |
| 20260506190043 | 58 | 148 | 1.7 | 6.1 | 0.07 | 0.23 | 0.22 | 94 | 1004.5 |
| 20260506185530 | 58 | 195 | 2.6 | 6.1 | 0.07 | 0.22 | 0.21 | 94 | 1004.6 |
| 20260506185029 | 58 | 178 | 2.6 | 7.0 | 0.08 | 0.22 | 0.21 | 93 | 1004.7 |
| 20260506184546 | 58 | 174 | 2.6 | 7.0 | 0.08 | 0.21 | 0.20 | 93 | 1004.8 |
| 20260506184030 | 58 | 219 | 2.6 | 7.0 | 0.09 | 0.20 | 0.19 | 93 | 1004.8 |
| 20260506183530 | 58 | 140 | 3.5 | 7.0 | 0.09 | 0.19 | 0.18 | 93 | 1004.8 |
| 20260506183039 | 59 | 173 | 2.6 | 7.8 | 0.10 | 0.19 | 0.18 | 93 | 1004.8 |
| 20260506182529 | 59 | 167 | 0.9 | 8.7 | 0.11 | 0.19 | 0.18 | 93 | 1004.6 |
| 20260506182029 | 59 | 165 | 3.5 | 8.7 | 0.11 | 0.18 | 0.17 | 93 | 1005.2 |
| 20260506181539 | 59 | 157 | 3.5 | 11.3 | 0.12 | 0.18 | 0.17 | 92 | 1005.2 |
| 20260506181029 | 59 | 177 | 5.2 | 11.3 | 0.12 | 0.17 | 0.16 | 92 | 1005.4 |
| 20260506180529 | 59 | 218 | 1.7 | 8.7 | 0.11 | 0.16 | 0.15 | 93 | 1005.4 |
| 20260506180037 | 58 | 188 | 4.3 | 8.7 | 0.12 | 0.16 | 0.15 | 92 | 1005.4 |
| 20260506175528 | 59 | 209 | 3.5 | 8.7 | 0.11 | 0.15 | 0.14 | 93 | 1005.7 |
| 20260506175028 | 59 | 201 | 1.7 | 8.7 | 0.11 | 0.14 | 0.13 | 92 | 1005.8 |
| 20260506174538 | 59 | 190 | 1.7 | 7.8 | 0.11 | 0.13 | 0.12 | 93 | 1005.7 |
| 20260506174034 | 59 | 182 | 3.5 | 7.8 | 0.09 | 0.11 | 0.10 | 92 | 1005.8 |
| 20260506173530 | 59 | 169 | 3.5 | 7.0 | 0.09 | 0.10 | 0.09 | 92 | 1005.8 |
| 20260506173117 | 59 | 164 | 2.6 | 7.0 | 0.08 | 0.09 | 0.08 | 92 | 1005.9 |
| 20260506172534 | 59 | 134 | 0.9 | 4.3 | 0.07 | 0.08 | 0.07 | 92 | 1005.9 |
| 20260506172030 | 59 | 194 | 1.7 | 4.3 | 0.06 | 0.07 | 0.06 | 91 | 1005.9 |
| 20260506171545 | 59 | 184 | 0.9 | 3.5 | 0.05 | 0.06 | 0.05 | 91 | 1005.8 |
| 20260506171033 | 59 | 162 | 0.9 | 3.5 | 0.04 | 0.05 | 0.04 | 90 | 1005.8 |
| 20260506170529 | 59 | 196 | 0.9 | 3.5 | 0.04 | 0.05 | 0.04 | 90 | 1005.9 |
| 20260506170050 | 60 | 158 | 0.9 | 6.1 | 0.03 | 0.04 | 0.03 | 89 | 1005.9 |
| 20260506165529 | 60 | 188 | 0.9 | 7.0 | 0.02 | 0.03 | 0.02 | 89 | 1005.8 |
| 20260506165030 | 60 | 165 | 0.9 | 7.0 | 0.02 | 0.03 | 0.02 | 87 | 1005.8 |
| 20260506164541 | 60 | 203 | 1.7 | 7.0 | 0.01 | 0.02 | 0.01 | 86 | 1005.9 |
| 20260506164030 | 60 | 186 | 1.7 | 7.8 | 0.01 | 0.02 | 0.01 | 85 | 1006.0 |
| 20260506163535 | 60 | 207 | 2.6 | 9.6 | 0.00 | 0.01 | 0.00 | 83 | 1006.1 |
| 20260506163042 | 61 | 211 | 4.3 | 9.6 | 0.00 | 0.01 | 0.00 | 82 | 1006.1 |
| 20260506162530 | 61 | 192 | 2.6 | 10.4 | 0.00 | 0.01 | 0.00 | 81 | 1006.0 |
| 20260506162033 | 61 | 231 | 3.5 | 10.4 | 0.00 | 0.01 | 0.00 | 80 | 1006.0 |
| 20260506161540 | 61 | 214 | 3.5 | 9.6 | 0.00 | 0.01 | 0.00 | 80 | 1006.2 |
| 20260506161030 | 61 | 189 | 3.5 | 16.5 | 0.00 | 0.01 | 0.00 | 79 | 1006.2 |
| 20260506160530 | 62 | 202 | 7.0 | 16.5 | 0.00 | 0.01 | 0.00 | 79 | 1006.4 |
| 20260506160040 | 62 | 182 | 4.3 | 9.6 | 0.00 | 0.01 | 0.00 | 79 | 1006.4 |
| 20260506155530 | 62 | 177 | 3.5 | 11.3 | 0.00 | 0.01 | 0.00 | 79 | 1006.3 |
| 20260506155032 | 62 | 201 | 5.2 | 11.3 | 0.00 | 0.01 | 0.00 | 78 | 1006.4 |
| 20260506154553 | 61 | 225 | 3.5 | 8.7 | 0.00 | 0.01 | 0.00 | 80 | 1006.7 |
| 20260506154031 | 61 | 232 | 3.5 | 12.2 | 0.00 | 0.01 | 0.00 | 80 | 1006.7 |
| 20260506153533 | 61 | 261 | 5.2 | 12.2 | 0.00 | 0.01 | 0.00 | 80 | 1006.8 |
| 20260506153047 | 61 | 216 | 2.6 | 11.3 | 0.00 | 0.01 | 0.00 | 80 | 1007.1 |
| 20260506152532 | 61 | 209 | 4.3 | 11.3 | 0.00 | 0.01 | 0.00 | 78 | 1007.2 |
| 20260506152032 | 61 | 258 | 6.1 | 11.3 | 0.00 | 0.01 | 0.00 | 78 | 1007.3 |
| 20260506151551 | 61 | 269 | 2.6 | 7.8 | 0.00 | 0.01 | 0.00 | 79 | 1007.2 |
| 20260506151030 | 61 | 271 | 3.5 | 7.8 | 0.00 | 0.01 | 0.00 | 77 | 1007.3 |
| 20260506150533 | 62 | 261 | 2.6 | 7.0 | 0.00 | 0.01 | 0.00 | 78 | 1007.3 |
| 20260506150041 | 62 | 223 | 1.7 | 5.2 | 0.00 | 0.01 | 0.00 | 77 | 1007.1 |
| 20260506145531 | 62 | 228 | 1.7 | 5.2 | 0.00 | 0.01 | 0.00 | 77 | 1007.0 |
| 20260506145032 | 62 | 231 | 1.7 | 7.8 | 0.00 | 0.01 | 0.00 | 79 | 1007.0 |
| 20260506144542 | 62 | 0 | 1.7 | 8.7 | 0.00 | 0.01 | 0.00 | 78 | 1007.0 |
| 20260506144030 | 61 | 179 | 3.5 | 8.7 | 0.00 | 0.01 | 0.00 | 77 | 1006.9 |
| 20260506143530 | 61 | 257 | 3.5 | 10.4 | 0.00 | 0.01 | 0.00 | 78 | 1006.8 |
| 20260506143040 | 61 | 207 | 2.6 | 10.4 | 0.00 | 0.01 | 0.00 | 77 | 1006.9 |
| 20260506142530 | 61 | 215 | 3.5 | 8.7 | 0.00 | 0.01 | 0.00 | 78 | 1007.0 |
| 20260506142029 | 61 | 261 | 3.5 | 9.6 | 0.00 | 0.01 | 0.00 | 77 | 1006.9 |
| 20260506141542 | 61 | 247 | 4.3 | 10.4 | 0.00 | 0.01 | 0.00 | 78 | 1006.9 |
| 20260506141030 | 61 | 237 | 3.5 | 10.4 | 0.00 | 0.01 | 0.00 | 77 | 1007.1 |
| 20260506140530 | 61 | 278 | 2.6 | 7.0 | 0.00 | 0.01 | 0.00 | 78 | 1007.1 |
| 20260506140042 | 61 | 245 | 1.7 | 7.0 | 0.00 | 0.01 | 0.00 | 81 | 1007.0 |
| 20260506135530 | 60 | 258 | 2.6 | 7.0 | 0.00 | 0.01 | 0.00 | 80 | 1007.1 |
| 20260506135029 | 60 | 299 | 1.7 | 7.0 | 0.00 | 0.01 | 0.00 | 81 | 1007.0 |
| 20260506134541 | 60 | 307 | 1.7 | 6.1 | 0.00 | 0.01 | 0.00 | 81 | 1007.0 |
| 20260506134029 | 60 | 265 | 2.6 | 6.1 | 0.00 | 0.01 | 0.00 | 81 | 1007.0 |
| 20260506133529 | 59 | 236 | 1.7 | 6.1 | 0.00 | 0.01 | 0.00 | 81 | 1007.0 |
| 20260506133039 | 59 | 288 | 0.9 | 5.2 | 0.00 | 0.01 | 0.00 | 82 | 1007.1 |
| 20260506132533 | 59 | 257 | 1.7 | 6.1 | 0.00 | 0.01 | 0.00 | 82 | 1007.2 |
| 20260506132032 | 59 | 232 | 2.6 | 6.1 | 0.00 | 0.01 | 0.00 | 82 | 1007.3 |
| 20260506131550 | 58 | 220 | 1.7 | 6.1 | 0.00 | 0.01 | 0.00 | 82 | 1007.4 |
| 20260506131030 | 58 | 278 | 1.7 | 6.1 | 0.00 | 0.01 | 0.00 | 82 | 1007.6 |
| 20260506130529 | 58 | 258 | 0.9 | 5.2 | 0.00 | 0.01 | 0.00 | 82 | 1007.8 |
| 20260506130051 | 58 | 258 | 1.7 | 4.3 | 0.00 | 0.01 | 0.00 | 82 | 1007.8 |
| 20260506125532 | 58 | 242 | 0.0 | 1.7 | 0.00 | 0.01 | 0.00 | 83 | 1007.8 |
| 20260506125033 | 58 | 309 | 0.0 | 1.7 | 0.00 | 0.01 | 0.00 | 83 | 1007.6 |
| 20260506124541 | 58 | 45 | 0.0 | 0.9 | 0.00 | 0.01 | 0.00 | 82 | 1007.4 |
| 20260506124029 | 58 | 0 | 0.0 | 0.9 | 0.00 | 0.01 | 0.00 | 83 | 1007.4 |
| 20260506123529 | 58 | 0 | 0.0 | 1.7 | 0.00 | 0.01 | 0.00 | 83 | 1007.4 |
| 20260506123042 | 58 | 0 | 0.0 | 2.6 | 0.00 | 0.01 | 0.00 | 83 | 1007.4 |
| 20260506122530 | 58 | 45 | 0.0 | 2.6 | 0.00 | 0.01 | 0.00 | 83 | 1007.1 |
| 20260506122030 | 57 | 0 | 0.0 | 0.9 | 0.00 | 0.01 | 0.00 | 84 | 1007.2 |
| 20260506121537 | 57 | 0 | 0.0 | 2.6 | 0.00 | 0.01 | 0.00 | 84 | 1007.2 |
| 20260506121029 | 57 | 0 | 0.0 | 2.6 | 0.00 | 0.01 | 0.00 | 84 | 1007.3 |
| 20260506120534 | 57 | 230 | 0.9 | 2.6 | 0.00 | 0.01 | 0.00 | 84 | 1007.5 |
| 20260506120050 | 56 | 194 | 0.9 | 4.3 | 0.00 | 0.01 | 0.00 | 84 | 1007.7 |
| 20260506115529 | 56 | 0 | 1.7 | 4.3 | 0.00 | 0.01 | 0.00 | 84 | 1007.6 |
| 20260506115028 | 56 | 0 | 1.7 | 3.5 | 0.00 | 0.01 | 0.00 | 84 | 1007.5 |
| 20260506114542 | 56 | 137 | 0.0 | 3.5 | 0.00 | 0.01 | 0.00 | 85 | 1007.5 |
| 20260506114029 | 56 | 0 | 0.9 | 3.5 | 0.00 | 0.01 | 0.00 | 85 | 1007.5 |
| 20260506113529 | 56 | 160 | 0.9 | 3.5 | 0.00 | 0.01 | 0.00 | 86 | 1007.5 |
| 20260506113055 | 55 | 0 | 0.0 | 2.6 | 0.00 | 0.01 | 0.00 | 86 | 1007.6 |
| 20260506112529 | 55 | 62 | 0.0 | 1.7 | 0.00 | 0.01 | 0.00 | 87 | 1007.7 |
| 20260506112032 | 54 | 0 | 0.0 | 1.7 | 0.00 | 0.01 | 0.00 | 87 | 1007.6 |
| 20260506111537 | 54 | 62 | 0.0 | 1.7 | 0.00 | 0.01 | 0.00 | 88 | 1007.8 |
| 20260506111029 | 54 | 0 | 0.0 | 1.7 | 0.00 | 0.01 | 0.00 | 89 | 1007.7 |
| 20260506110531 | 53 | 0 | 0.0 | 2.6 | 0.00 | 0.01 | 0.00 | 89 | 1007.5 |
| 20260506110043 | 53 | 62 | 0.0 | 2.6 | 0.00 | 0.01 | 0.00 | 89 | 1007.5 |
| 20260506105529 | 52 | 61 | 0.0 | 2.6 | 0.00 | 0.01 | 0.00 | 90 | 1007.6 |
| 20260506105031 | 52 | 51 | 0.9 | 2.6 | 0.00 | 0.01 | 0.00 | 90 | 1007.5 |
| 20260506104548 | 52 | 0 | 0.0 | 0.0 | 0.00 | 0.01 | 0.00 | 89 | 1007.6 |
| 20260506104027 | 52 | 0 | 0.0 | 0.0 | 0.00 | 0.01 | 0.00 | 89 | 1007.7 |
| 20260506103527 | 52 | 0 | 0.0 | 1.7 | 0.00 | 0.01 | 0.00 | 89 | 1007.7 |
| 20260506103049 | 52 | 0 | 0.0 | 1.7 | 0.00 | 0.01 | 0.00 | 88 | 1007.7 |
| 20260506102530 | 52 | 46 | 0.9 | 1.7 | 0.00 | 0.01 | 0.00 | 88 | 1007.7 |
| 20260506102030 | 52 | 0 | 0.0 | 1.7 | 0.00 | 0.01 | 0.00 | 87 | 1007.7 |
| 20260506101549 | 53 | 46 | 0.0 | 1.7 | 0.00 | 0.01 | 0.00 | 88 | 1007.5 |
| 20260506101029 | 52 | 0 | 0.0 | 1.7 | 0.00 | 0.01 | 0.00 | 89 | 1007.7 |
| 20260506100529 | 52 | 46 | 0.0 | 1.7 | 0.00 | 0.01 | 0.00 | 89 | 1008.0 |
| 20260506100059 | 52 | 46 | 0.0 | 1.7 | 0.00 | 0.01 | 0.00 | 89 | 1007.7 |
| 20260506095529 | 52 | 46 | 0.9 | 1.7 | 0.00 | 0.01 | 0.00 | 89 | 1007.5 |
| 20260506095028 | 52 | 0 | 0.0 | 1.7 | 0.00 | 0.01 | 0.00 | 88 | 1007.5 |
| 20260506094536 | 52 | 0 | 0.0 | 1.7 | 0.00 | 0.01 | 0.00 | 87 | 1007.6 |
| 20260506094027 | 52 | 46 | 0.0 | 0.9 | 0.00 | 0.01 | 0.00 | 88 | 1007.5 |
| 20260506093526 | 52 | 46 | 0.0 | 0.9 | 0.00 | 0.01 | 0.00 | 87 | 1007.5 |
| 20260506093042 | 52 | 0 | 0.0 | 1.7 | 0.00 | 0.01 | 0.00 | 87 | 1007.4 |
| 20260506092527 | 52 | 0 | 0.0 | 2.6 | 0.00 | 0.01 | 0.00 | 87 | 1007.3 |
| 20260506092030 | 53 | 46 | 0.9 | 2.6 | 0.00 | 0.01 | 0.00 | 86 | 1007.5 |
| 20260506091540 | 53 | 49 | 0.0 | 2.6 | 0.00 | 0.01 | 0.00 | 85 | 1007.4 |
| 20260506091032 | 53 | 0 | 0.0 | 0.0 | 0.00 | 0.01 | 0.00 | 85 | 1007.6 |
| 20260506090530 | 53 | 0 | 0.0 | 0.0 | 0.00 | 0.01 | 0.00 | 86 | 1007.4 |
| 20260506090038 | 53 | 0 | 0.0 | 0.0 | 0.00 | 0.01 | 0.00 | 87 | 1007.4 |
| 20260506085531 | 53 | 0 | 0.0 | 0.0 | 0.00 | 0.01 | 0.00 | 86 | 1007.6 |
| 20260506085029 | 53 | 0 | 0.0 | 1.7 | 0.00 | 0.01 | 0.00 | 85 | 1007.5 |
| 20260506084559 | 53 | 0 | 0.0 | 2.6 | 0.00 | 0.01 | 0.00 | 84 | 1007.7 |
| 20260506084027 | 54 | 169 | 0.0 | 3.5 | 0.00 | 0.01 | 0.00 | 83 | 1007.5 |
| 20260506083529 | 54 | 322 | 0.0 | 3.5 | 0.00 | 0.01 | 0.00 | 83 | 1007.7 |
| 20260506083035 | 54 | 254 | 0.9 | 3.5 | 0.00 | 0.01 | 0.00 | 83 | 1007.8 |
| 20260506082530 | 54 | 0 | 0.0 | 1.7 | 0.00 | 0.01 | 0.00 | 83 | 1007.8 |
| 20260506082033 | 55 | 296 | 0.0 | 1.7 | 0.00 | 0.01 | 0.00 | 82 | 1007.9 |
| 20260506081547 | 55 | 0 | 0.0 | 1.7 | 0.00 | 0.01 | 0.00 | 81 | 1008.0 |
| 20260506081030 | 55 | 276 | 0.0 | 2.6 | 0.00 | 0.01 | 0.00 | 81 | 1007.9 |
| 20260506080530 | 55 | 276 | 0.0 | 2.6 | 0.00 | 0.01 | 0.00 | 81 | 1007.9 |
| 20260506073045 | 57 | 330 | 0.0 | 2.6 | 0.00 | 0.01 | 0.00 | 78 | 1007.9 |
| 20260506072530 | 57 | 0 | 0.9 | 2.6 | 0.00 | 0.01 | 0.00 | 77 | 1007.8 |
| 20260506072029 | 57 | 308 | 0.0 | 5.2 | 0.00 | 0.01 | 0.00 | 77 | 1007.9 |
| 20260506071545 | 58 | 277 | 0.9 | 5.2 | 0.00 | 0.01 | 0.00 | 77 | 1007.9 |
| 20260506071031 | 57 | 292 | 0.9 | 3.5 | 0.00 | 0.01 | 0.00 | 77 | 1008.0 |
| 20260506070532 | 57 | 240 | 0.9 | 3.5 | 0.00 | 0.01 | 0.00 | 77 | 1007.9 |
| 20260506062029 | 59 | 266 | 0.9 | 3.5 | 0.00 | 0.01 | 0.00 | 75 | 1007.6 |
| 20260506061539 | 59 | 302 | 0.9 | 6.1 | 0.00 | 0.01 | 0.00 | 75 | 1007.6 |
| 20260506061029 | 59 | 269 | 2.6 | 6.1 | 0.00 | 0.01 | 0.00 | 74 | 1007.6 |
| 20260506060532 | 59 | 254 | 1.7 | 5.2 | 0.00 | 0.01 | 0.00 | 74 | 1007.7 |
| 20260506051029 | 60 | 284 | 0.0 | 2.6 | 0.00 | 0.01 | 0.00 | 75 | 1007.8 |
| 20260506050530 | 61 | 288 | 0.9 | 2.6 | 0.00 | 0.01 | 0.00 | 75 | 1007.9 |
| 20260506045030 | 61 | 219 | 0.9 | 4.3 | 0.00 | 0.01 | 0.00 | 74 | 1007.8 |
| 20260506044622 | 61 | 0 | 0.9 | 5.2 | 0.00 | 0.01 | 0.00 | 75 | 1007.9 |
| 20260506044031 | 60 | 193 | 1.7 | 5.2 | 0.00 | 0.01 | 0.00 | 74 | 1007.9 |
| 20260506043529 | 60 | 203 | 0.0 | 1.7 | 0.00 | 0.01 | 0.00 | 76 | 1007.9 |
| 20260506043040 | 61 | 0 | 0.0 | 1.7 | 0.00 | 0.01 | 0.00 | 76 | 1007.9 |
| 20260506042530 | 61 | 0 | 0.0 | 1.7 | 0.00 | 0.01 | 0.00 | 75 | 1007.8 |
| 20260506042030 | 61 | 0 | 0.0 | 3.5 | 0.00 | 0.01 | 0.00 | 75 | 1007.6 |
| 20260506041553 | 62 | 203 | 0.0 | 6.1 | 0.00 | 0.01 | 0.00 | 75 | 1007.7 |
| 20260506041030 | 62 | 0 | 0.9 | 6.1 | 0.00 | 0.01 | 0.00 | 73 | 1007.6 |
| 20260506040529 | 61 | 208 | 1.7 | 6.1 | 0.00 | 0.01 | 0.00 | 74 | 1007.6 |
| 20260506040040 | 61 | 194 | 0.9 | 2.6 | 0.00 | 0.01 | 0.00 | 75 | 1007.5 |
| 20260506035530 | 61 | 277 | 0.0 | 1.7 | 0.00 | 0.01 | 0.01 | 76 | 1007.6 |
| 20260506035029 | 61 | 0 | 0.0 | 1.7 | 0.00 | 0.01 | 0.01 | 77 | 1007.7 |
| 20260506034605 | 61 | 0 | 0.0 | 1.7 | 0.00 | 0.01 | 0.01 | 76 | 1007.6 |
| 20260506034029 | 61 | 52 | 0.0 | 2.6 | 0.00 | 0.01 | 0.01 | 76 | 1007.7 |
| 20260506033529 | 62 | 52 | 0.0 | 2.6 | 0.00 | 0.01 | 0.01 | 76 | 1007.7 |
| 20260506033037 | 62 | 0 | 0.9 | 2.6 | 0.00 | 0.01 | 0.01 | 74 | 1007.7 |
| 20260506032529 | 63 | 53 | 0.9 | 2.6 | 0.00 | 0.01 | 0.01 | 73 | 1007.7 |
| 20260506032029 | 63 | 0 | 0.0 | 3.5 | 0.00 | 0.01 | 0.01 | 73 | 1007.7 |
| 20260506031542 | 63 | 0 | 0.9 | 3.5 | 0.00 | 0.01 | 0.01 | 70 | 1007.5 |
| 20260506031032 | 63 | 200 | 1.7 | 3.5 | 0.00 | 0.01 | 0.01 | 70 | 1007.6 |
| 20260506030529 | 63 | 187 | 0.9 | 7.0 | 0.00 | 0.01 | 0.01 | 71 | 1007.7 |
| 20260506030039 | 63 | 169 | 1.7 | 7.0 | 0.00 | 0.01 | 0.01 | 71 | 1007.7 |
| 20260506025533 | 63 | 170 | 0.9 | 7.0 | 0.00 | 0.01 | 0.01 | 71 | 1007.5 |
| 20260506025029 | 63 | 204 | 0.9 | 4.3 | 0.00 | 0.01 | 0.01 | 70 | 1007.7 |
| 20260506024542 | 63 | 205 | 0.0 | 4.3 | 0.00 | 0.01 | 0.01 | 70 | 1007.8 |
| 20260506024030 | 63 | 216 | 0.9 | 5.2 | 0.00 | 0.01 | 0.01 | 70 | 1007.8 |
| 20260506023530 | 63 | 0 | 2.6 | 6.1 | 0.00 | 0.01 | 0.01 | 70 | 1007.7 |
| 20260506023059 | 63 | 217 | 2.6 | 7.8 | 0.00 | 0.01 | 0.01 | 71 | 1007.7 |
| 20260506022529 | 63 | 160 | 2.6 | 7.8 | 0.00 | 0.01 | 0.01 | 72 | 1007.8 |
| 20260506022029 | 62 | 197 | 0.9 | 4.3 | 0.00 | 0.01 | 0.01 | 72 | 1007.6 |
| 20260506021543 | 62 | 162 | 0.9 | 4.3 | 0.00 | 0.01 | 0.01 | 73 | 1007.5 |